User: anonymous   Login
Location: Unspecified
(0.0000°N, 0.0000°E)
Time: 14:30:16
(UTC+00:00)
Language:

GONETS M 09 (M19) - Orbit

View from above orbital plane
View from above orbital plane
View from above satellite
View from above satellite

Ground track
Ground track

The orbit data is extracted from the following two-line orbital elements,

1 40062U 14036B   18267.71424366 +.00000032 +00000-0 +16077-3 0  9992
2 40062 082.5059 260.5960 0021660 186.8268 173.2526 12.42893207191820
Epoch (UTC): 24 September 2018 17:08:30
Eccentricity: 0.0021660
inclination: 82.5059°
perigee height: 1477 km
apogee height: 1511 km
right ascension of ascending node: 260.5960°
argument of perigee: 186.8268°
revolutions per day: 12.42893207
mean anomaly at epoch: 173.2526°
orbit number at epoch: 19182

The dashed part of the orbit path shows where the satellite is in the earth's shadow,  

DLR